STARLINK-30372, 57789

Orbit data source: Space-Track

STARLINK-30372, 57789 is a payload satellite owned by SpaceX/Seattle (US) in LEO that was launched on Mon, 04 Sep 2023 UTC via an FALCON 9 launch vehicle from the Air Force Eastern Test Range (AFETR). Payload-class satellites include a variety of spacecraft equipped with specific instruments for various scientific and technological missions. These include communications satellites like Starlink; space stations such as the ISS; scientific satellites like the Hubble; Earth observation satellites from companies like Planet Labs, Umbra, and HawkEye 360; GPS; miniature CubeSats for education and research; and military/defense satellites.

Loading next visibility...
Identifier
57789, 2023-134U
Orbit
LEO
Country
Flag of USUS
Related business
Manufacturer
SpaceX/Seattle
Mission
Operational Commercial Communications
Bus & Motor
STARLINK V2M, Unknown motor
Mass
730 kg wet, ~700 kg dry
Launch date (UTC)
2023-09-04 (3 years ago)
Launch vehicle
FALCON 9
Launch site
Air Force Eastern Test Range (AFETR)
Object type
Payload
Rocket body
Debris
Shape & HBR
Box + 2 Pan, 17.7 m
Radar Cross Section
33.884 m², Large (>1 m²)

Expand to show TLE details & history
Last TLE update: 2 days ago

TLE from 2 days ago
0 STARLINK-30372
1 57789U 23134U   26171.18359570  .00005194  00000-0  19666-3 0  9994
2 57789  43.0020 219.5305 0001914 302.9438  57.1229 15.27828529156542
Epoch: 2026-06-20T04:24Z
TLE epoch observation values (Epoch: 2026-06-20T04:24:22.668Z)
Latitude
-0.00006°
Longitude
-114.96588°
Altitude
481.368 km
Speed
7.627 km/s
True Right ascension
14h 38m 07s
True Declination
0° 00' 00"
Sunlit
Object was in full shadow at epoch
Visualization orbit readout
Latitude
Unknown
Longitude
Unknown
Altitude
Unknown
Speed
Unknown
Apparent Right ascension
Unknown
Apparent Declination
Unknown
Sunlit
N/A
Visualization observer readout
Local Sidereal Time
21:34:27
Azimuth
Unknown
Elevation
Unknown
Doppler factor
Unknown
Orbital elements
Apogee altitude
485.564 km
Perigee altitude
482.937 km
Semi-major axis
6,862.387 km
Eccentricity
0.00019
Inclination
43.002°
RAAN
219.5305°
Arg. of periapsis
302.9438°
True anomaly
57.14132°
Mean anomaly
57.1229°
Eccentric anomaly
57.13211°
Mean motion
3.81795 °/min
Orbital period
94.29 mins
BSTAR
0.00019666
Loading maneuver chart data...
Computing Atmospheric mass density...
Loading historical data...
Loading historical data...
Loading historical data...
Loading historical data...
Loading historical data...
Loading historical data...
Loading historical data...

Documentation

Showing up to 5 results
|